This is the latest recevied weather packets stored in our database for station/object KF6YUA. If no packets are shown the sender has not sent any weather packets the latest 10 day(s).
| Time | Temp. | Humidity | Pressure | Rain* | Wind** | Luminosity | Snow |
|---|---|---|---|---|---|---|---|
| 1777823543 | 12.78° C | 86% | 1014.8 hPa | 0 mm | - | 62 W/m² | - |
| 1777823239 | 12.78° C | 86% | 1014.8 hPa | 0 mm | - | 93 W/m² | - |
| 1777822937 | 12.78° C | 87% | 1014.8 hPa | 0 mm | - | 102 W/m² | - |
| 1777822635 | 12.78° C | 87% | 1014.7 hPa | 0 mm | - | 77 W/m² | - |
| 1777822333 | 13.33° C | 87% | 1014.7 hPa | 0 mm | - | 76 W/m² | - |
| 1777822030 | 13.33° C | 86% | 1014.4 hPa | 0 mm | - | 84 W/m² | - |
| 1777821728 | 12.78° C | 87% | 1014.5 hPa | 0 mm | - | 110 W/m² | - |
| 1777821425 | 12.78° C | 86% | 1014.4 hPa | 0 mm | - | 117 W/m² | - |
| 1777821122 | 12.78° C | 89% | 1014.3 hPa | 0 mm | - | 92 W/m² | - |
| 1777820819 | 12.78° C | 89% | 1014.2 hPa | 0 mm | - | 77 W/m² | - |
| 1777820515 | 12.22° C | 90% | 1014.1 hPa | 0 mm | - | 69 W/m² | - |
| 1777820211 | 12.22° C | 91% | 1014.3 hPa | 0 mm | - | 56 W/m² | - |
| 1777819909 | 12.22° C | 91% | 1014.2 hPa | 0 mm | - | 46 W/m² | - |
| 1777819606 | 11.67° C | 91% | 1014 hPa | 0 mm | - | 34 W/m² | - |
| 1777819304 | 11.67° C | 92% | 1013.9 hPa | 0 mm | - | 28 W/m² | - |
| 1777819000 | 11.67° C | 92% | 1013.8 hPa | 0 mm | - | 26 W/m² | - |
| 1777818698 | 11.67° C | 93% | 1013.8 hPa | 0 mm | - | 26 W/m² | - |
| 1777818394 | 11.67° C | 93% | 1013.9 hPa | 0 mm | - | 22 W/m² | - |
| 1777818091 | 11.67° C | 94% | 1013.8 hPa | 0 mm | - | 18 W/m² | - |
| 1777817787 | 11.67° C | 94% | 1013.7 hPa | 0 mm | - | 16 W/m² | - |
| 1777817485 | 11.67° C | 94% | 1013.5 hPa | 0 mm | - | 12 W/m² | - |
| 1777817181 | 11.11° C | 94% | 1013.4 hPa | 0 mm | - | 12 W/m² | - |
| 1777816879 | 11.67° C | 94% | 1013.4 hPa | 0 mm | - | 11 W/m² | - |
| 1777816576 | 11.11° C | 95% | 1013.5 hPa | 0 mm | - | 9 W/m² | - |
| 1777816272 | 11.67° C | 95% | 1013.2 hPa | 0 mm | - | 5 W/m² | - |
* Rain latest hour (hover to see other rain measurements)
** Current wind speed in m/s (hover to see current wind gust speed)